Location: Lafig�re
(44.4503°N, 4.0357°E)
Time: 03:37:48
(UTC+00:00)

Transit 4A - Pass Details

Date: 26 January 2021
Orbit: 866 x 978 km, 66.8° (Epoch: 02 March)

Event Time Altitude Azimuth Distance (km) Brightness Sun altitude
Rises 02:48:39 0° 329° (NNW) 3,630 - -45.9°
Reaches altitude 10° 02:51:15 10° 332° (NNW) 2,666 - -45.5°
Maximum altitude 02:57:26 68° 55° (NE) 993 - -44.4°
Drops below altitude 10° 03:03:23 10° 138° (SE) 2,572 - -43.4°
Exits shadow 03:05:35 - 141° (SE) 3,387 11.0 -43.1°
Sets 03:05:52 0° 141° (SE) 3,494 11.1 -43.0°
